Location: Invercargill
(46.4000°S, 168.3500°E)
Time: 23:26:03
(UTC+13:00)

Courier 1B - All Passes

Search period start: 17 October 2019 00:00
Search period end: 27 October 2019 00:00
Orbit: 962 x 1209 km, 28.3° (Epoch: 17 October)

Date Brightness Start Highest point End Pass type
(mag) Time Alt. Az. Time Alt. Az. Time Alt. Az.
17 Oct - 09:31:07 10° NNW 09:34:05 13° NNE 09:37:06 10° NE daylight
17 Oct - 11:22:48 10° NW 11:26:51 17° N 11:31:02 10° NE daylight
17 Oct - 13:17:09 10° NW 13:19:40 12° NNW 13:22:14 10° N daylight
18 Oct - 08:38:56 10° N 08:40:41 11° NNE 08:42:26 10° NNE daylight
18 Oct - 10:29:29 10° NNW 10:33:23 16° N 10:37:23 10° NE daylight
18 Oct - 12:23:01 10° NW 12:26:11 14° NNW 12:29:27 10° NNE daylight
19 Oct - 09:36:19 10° NNW 09:39:56 15° N 09:43:37 10° NE daylight
19 Oct - 11:29:12 10° NW 11:32:43 15° N 11:36:19 10° NNE daylight
20 Oct - 08:43:20 10° NNW 08:46:30 14° N 08:49:43 10° NE daylight
20 Oct - 10:35:36 10° NW 10:39:16 15° N 10:43:00 10° NNE daylight
21 Oct - 07:50:39 10° N 07:53:06 12° NNE 07:55:34 10° NE daylight
21 Oct - 09:42:09 10° NW 09:45:49 16° N 09:49:33 10° NNE daylight
21 Oct - 11:36:38 10° NNW 11:38:34 11° NNW 11:40:32 10° N daylight
22 Oct - 06:58:50 10° N 06:59:43 10° NNE 07:00:36 10° NNE daylight
22 Oct - 08:48:49 10° NNW 08:52:23 15° N 08:56:00 10° NE daylight
22 Oct - 10:42:23 10° NW 10:45:08 13° NNW 10:47:55 10° NNE daylight
23 Oct - 07:55:37 10° NNW 07:58:58 15° N 08:02:20 10° NE daylight
23 Oct - 09:48:31 10° NW 09:51:42 14° N 09:54:56 10° NNE daylight
24 Oct - 07:02:36 10° NNW 07:05:33 13° N 07:08:31 10° NE daylight
24 Oct - 08:54:51 10° NW 08:58:17 15° N 09:01:44 10° NNE daylight
25 Oct - 06:09:50 10° N 06:12:09 12° NNE 06:14:27 10° NE daylight
25 Oct - 08:01:19 10° NW 08:04:52 15° N 08:08:24 10° NNE daylight
25 Oct - 09:55:59 10° NNW 09:57:34 11° NNW 09:59:09 10° N daylight
26 Oct - 05:17:59 10° N 05:18:45 10° NNE 05:19:31 10° NNE visible
26 Oct - 07:07:55 10° NNW 07:11:27 15° N 07:14:57 10° NE daylight
26 Oct - 09:01:33 10° NW 09:04:09 13° NNW 09:06:46 10° NNE daylight
